,,Stat5,,Stat1,,Stat2,,Stat3,,Stat4,,Wind1,,Wind1,
time,status,PA1M_AVG,status,PR1M_SUM,status,RH1M_AVG,status,SR1M_AVG,status,TA1M_AVG,status,W1dAve1m,status,W1sAve1m,
2000-11-29, 00:00:00,VALID,917.593,VALID,0,VALID,99.2767,VALID,0.0169808,VALID,18.7918,VALID,213,VALID,0.698191,
2000-11-29, 00:01:00,VALID,917.607,VALID,0,VALID,99.2754,VALID,0.0339617,VALID,18.8015,VALID,206,VALID,0.119449,
2000-11-29, 00:02:00,VALID,917.591,VALID,0,VALID,99.2818,VALID,0,VALID,18.8151,VALID,210,VALID,0.473357,
2000-11-29, 00:03:00,VALID,917.602,VALID,0,VALID,99.2754,VALID,-0.0169808,VALID,18.8154,VALID,213,VALID,1.13809,
2000-11-29, 00:04:00,VALID,917.596,VALID,0,VALID,99.2653,VALID,-0.0679233,VALID,18.8131,VALID,209,VALID,0.962139,
2000-11-29, 00:05:00,VALID,917.623,VALID,0,VALID,99.2373,VALID,-0.0849042,VALID,18.8359,VALID,212,VALID,0.671675,
2000-11-29, 00:06:00,VALID,917.631,VALID,0,VALID,99.2271,VALID,-0.0679233,VALID,18.8355,VALID,197,VALID,0.479096,
2000-11-29, 00:07:00,VALID,917.632,VALID,0,VALID,99.2055,VALID,-0.0849042,VALID,18.8355,VALID,173,VALID,0.687305,
2000-11-29, 00:08:00,VALID,917.656,VALID,0,VALID,99.1941,VALID,-0.0679233,VALID,18.8223,VALID,148,VALID,0.605009,
2000-11-29, 00:09:00,VALID,917.672,VALID,0,VALID,99.1788,VALID,-0.0849042,VALID,18.8161,VALID,151,VALID,0.609375,
2000-11-29, 00:10:00,VALID,917.672,VALID,0,VALID,99.1839,VALID,-0.0679233,VALID,18.8094,VALID,156,VALID,0.392829,
2000-11-29, 00:11:00,VALID,917.687,VALID,0,VALID,99.1852,VALID,-0.0509425,VALID,18.7999,VALID,166,VALID,0.359786,
2000-11-29, 00:12:00,VALID,917.691,VALID,0,VALID,99.2055,VALID,-0.0679233,VALID,18.7937,VALID,189,VALID,0.647656,
2000-11-29, 00:13:00,VALID,917.691,VALID,0,VALID,99.2233,VALID,-0.0849042,VALID,18.7999,VALID,200,VALID,0.608984,
2000-11-29, 00:14:00,VALID,917.676,VALID,0,VALID,99.2449,VALID,-0.0849042,VALID,18.7999,VALID,209,VALID,0.791406,
2000-11-29, 00:15:00,VALID,917.677,VALID,0,VALID,99.2627,VALID,-0.0849042,VALID,18.8029,VALID,205,VALID,0.849559,
2000-11-29, 00:16:00,VALID,917.666,VALID,0,VALID,99.2742,VALID,-0.101885,VALID,18.826,VALID,200,VALID,1.00247,
2000-11-29, 00:17:00,VALID,917.66,VALID,0,VALID,99.25,VALID,-0.0849042,VALID,18.8293,VALID,193,VALID,0.882612,
2000-11-29, 00:18:00,VALID,917.665,VALID,0,VALID,99.2449,VALID,-0.101885,VALID,18.8193,VALID,189,VALID,0.98137,
2000-11-29, 00:19:00,VALID,917.669,VALID,0,VALID,99.2258,VALID,-0.0849042,VALID,18.8327,VALID,191,VALID,1.16681,
2000-11-29, 00:20:00,VALID,917.665,VALID,0,VALID,99.2157,VALID,-0.101885,VALID,18.8327,VALID,194,VALID,1.3097,
2000-11-29, 00:21:00,VALID,917.653,VALID,0,VALID,99.2208,VALID,-0.0849042,VALID,18.8322,VALID,183,VALID,1.13628,
2000-11-29, 00:22:00,VALID,917.643,VALID,0,VALID,99.1674,VALID,-0.101885,VALID,18.8161,VALID,176,VALID,0.929253,
2000-11-29, 00:23:00,VALID,917.649,VALID,0,VALID,99.1712,VALID,-0.0849042,VALID,18.8034,VALID,172,VALID,1.12598,
2000-11-29, 00:24:00,VALID,917.629,VALID,0,VALID,99.2106,VALID,-0.0509425,VALID,18.8069,VALID,168,VALID,1.29878,
2000-11-29, 00:25:00,VALID,917.612,VALID,0,VALID,99.2169,VALID,-0.101885,VALID,18.8034,VALID,167,VALID,1.16106,
2000-11-29, 00:26:00,VALID,917.616,VALID,0,VALID,99.1979,VALID,-0.101885,VALID,18.7907,VALID,171,VALID,1.0773,
2000-11-29, 00:27:00,VALID,917.618,VALID,0,VALID,99.2373,VALID,-0.101885,VALID,18.7741,VALID,167,VALID,0.971989,
2000-11-29, 00:28:00,VALID,917.613,VALID,0,VALID,99.2386,VALID,-0.0679233,VALID,18.7577,VALID,182,VALID,1.01022,
2000-11-29, 00:29:00,VALID,917.613,VALID,0,VALID,99.2627,VALID,-0.101885,VALID,18.7515,VALID,188,VALID,1.14464,
2000-11-29, 00:30:00,VALID,917.598,VALID,0,VALID,99.2716,VALID,-0.0849042,VALID,18.745,VALID,191,VALID,1.30098,
2000-11-29, 00:31:00,VALID,917.597,VALID,0,VALID,99.2932,VALID,-0.0679233,VALID,18.7584,VALID,192,VALID,1.34555,
2000-11-29, 00:32:00,VALID,917.573,VALID,0,VALID,99.3009,VALID,-0.101885,VALID,18.7383,VALID,192,VALID,1.2278,
2000-11-29, 00:33:00,VALID,917.56,VALID,0,VALID,99.3021,VALID,-0.0849042,VALID,18.7517,VALID,182,VALID,1.14041,
2000-11-29, 00:34:00,VALID,917.562,VALID,0,VALID,99.2958,VALID,0,VALID,18.7441,VALID,180,VALID,1.17508,
2000-11-29, 00:35:00,VALID,917.544,VALID,0,VALID,99.2665,VALID,0,VALID,18.7533,VALID,182,VALID,0.884191,
2000-11-29, 00:36:00,VALID,917.541,VALID,0,VALID,99.2284,VALID,0,VALID,18.7764,VALID,182,VALID,0.898438,
2000-11-29, 00:37:00,VALID,917.534,VALID,0,VALID,99.1928,VALID,0.0339617,VALID,18.766,VALID,174,VALID,1.02611,
2000-11-29, 00:38:00,VALID,917.531,VALID,0,VALID,99.133,VALID,0,VALID,18.7595,VALID,177,VALID,0.957248,
2000-11-29, 00:39:00,VALID,917.513,VALID,0,VALID,99.1025,VALID,0,VALID,18.7531,VALID,177,VALID,1.12901,
2000-11-29, 00:40:00,VALID,917.528,VALID,0,VALID,99.0669,VALID,-0.0169808,VALID,18.7535,VALID,173,VALID,1.01328,
2000-11-29, 00:41:00,VALID,917.524,VALID,0,VALID,99.0364,VALID,0,VALID,18.7441,VALID,180,VALID,0.850123,
2000-11-29, 00:42:00,VALID,917.533,VALID,0,VALID,99.0326,VALID,0,VALID,18.7307,VALID,180,VALID,0.940667,
2000-11-29, 00:43:00,VALID,917.526,VALID,0,VALID,99.0033,VALID,0,VALID,18.7081,VALID,179,VALID,0.760016,
2000-11-29, 00:44:00,VALID,917.527,VALID,0,VALID,99.0084,VALID,0,VALID,18.7048,VALID,178,VALID,0.566106,
2000-11-29, 00:45:00,VALID,917.547,VALID,0,VALID,99.0071,VALID,0,VALID,18.6954,VALID,178,VALID,0.397615,
2000-11-29, 00:46:00,VALID,917.547,VALID,0,VALID,98.9881,VALID,0,VALID,18.6626,VALID,193,VALID,0.488809,
2000-11-29, 00:47:00,VALID,917.533,VALID,0,VALID,99.0071,VALID,0,VALID,18.6564,VALID,193,VALID,0.430889,
2000-11-29, 00:48:00,VALID,917.544,VALID,0,VALID,99.0287,VALID,0,VALID,18.67,VALID,214,VALID,0.238809,
2000-11-29, 00:49:00,VALID,917.534,VALID,0,VALID,99.0402,VALID,0,VALID,18.6603,VALID,222,VALID,0.447002,
2000-11-29, 00:50:00,VALID,917.519,VALID,0,VALID,99.0644,VALID,0,VALID,18.6603,VALID,214,VALID,0.40282,
2000-11-29, 00:51:00,VALID,917.496,VALID,0,VALID,99.0605,VALID,0.0169808,VALID,18.6409,VALID,206,VALID,0.597222,
2000-11-29, 00:52:00,VALID,917.495,VALID,0,VALID,99.0758,VALID,0,VALID,18.6211,VALID,210,VALID,0.823633,
2000-11-29, 00:53:00,VALID,917.482,VALID,0,VALID,99.1178,VALID,0,VALID,18.6243,VALID,212,VALID,0.821715,
2000-11-29, 00:54:00,VALID,917.492,VALID,0,VALID,99.1305,VALID,0,VALID,18.6243,VALID,208,VALID,0.904883,
2000-11-29, 00:55:00,VALID,917.46,VALID,0,VALID,99.105,VALID,0,VALID,18.6243,VALID,204,VALID,0.854441,
2000-11-29, 00:56:00,VALID,917.445,VALID,0,VALID,99.1241,VALID,0,VALID,18.6153,VALID,206,VALID,0.940378,
2000-11-29, 00:57:00,VALID,917.425,VALID,0,VALID,99.1737,VALID,0,VALID,18.6151,VALID,210,VALID,1.05638,
2000-11-29, 00:58:00,VALID,917.402,VALID,0,VALID,99.2233,VALID,0,VALID,18.6375,VALID,216,VALID,1.13164,
2000-11-29, 00:59:00,VALID,917.396,VALID,0,VALID,99.2475,VALID,0,VALID,18.6633,VALID,202,VALID,1.19119,
2000-11-29, 01:00:00,VALID,917.39,VALID,0,VALID,99.2309,VALID,0,VALID,18.6891,VALID,195,VALID,1.18391,
2000-11-29, 01:01:00,VALID,917.382,VALID,0,VALID,99.1648,VALID,0.0169808,VALID,18.7143,VALID,194,VALID,1.13178,
2000-11-29, 01:02:00,VALID,917.37,VALID,0,VALID,99.0491,VALID,-0.0169808,VALID,18.7282,VALID,195,VALID,0.931581,
2000-11-29, 01:03:00,VALID,917.359,VALID,0,VALID,98.9728,VALID,0,VALID,18.7311,VALID,201,VALID,0.927632,
2000-11-29, 01:04:00,VALID,917.339,VALID,0,VALID,98.9258,VALID,0.0169808,VALID,18.6954,VALID,195,VALID,0.834375,
2000-11-29, 01:05:00,VALID,917.326,VALID,0,VALID,98.9181,VALID,0,VALID,18.6827,VALID,194,VALID,0.824424,
2000-11-29, 01:06:00,VALID,917.292,VALID,0,VALID,98.9296,VALID,0.0169808,VALID,18.676,VALID,196,VALID,0.868421,
2000-11-29, 01:07:00,VALID,917.29,VALID,0,VALID,98.9232,VALID,0,VALID,18.6628,VALID,194,VALID,0.747596,
2000-11-29, 01:08:00,VALID,917.277,VALID,0,VALID,98.9372,VALID,0.0169808,VALID,18.6472,VALID,195,VALID,0.994792,
2000-11-29, 01:09:00,VALID,917.273,VALID,0,VALID,98.9614,VALID,0.0169808,VALID,18.6275,VALID,199,VALID,1.22225,
2000-11-29, 01:10:00,VALID,917.27,VALID,0,VALID,98.969,VALID,0,VALID,18.6213,VALID,193,VALID,1.24507,
2000-11-29, 01:11:00,VALID,917.254,VALID,0,VALID,98.9817,VALID,0,VALID,18.6086,VALID,187,VALID,1.35977,
2000-11-29, 01:12:00,VALID,917.232,VALID,0,VALID,99.0427,VALID,0,VALID,18.6121,VALID,181,VALID,1.43929,
2000-11-29, 01:13:00,VALID,917.217,VALID,0,VALID,99.0198,VALID,-0.0169808,VALID,18.6116,VALID,177,VALID,1.36529,
2000-11-29, 01:14:00,VALID,917.202,VALID,0,VALID,98.9677,VALID,-0.0169808,VALID,18.6022,VALID,173,VALID,1.16591,
2000-11-29, 01:15:00,VALID,917.167,VALID,0,VALID,98.9614,VALID,0,VALID,18.5795,VALID,173,VALID,1.26801,
2000-11-29, 01:16:00,VALID,917.15,VALID,0,VALID,99.0275,VALID,0,VALID,18.5761,VALID,173,VALID,1.26758,
2000-11-29, 01:17:00,VALID,917.131,VALID,0,VALID,99.0504,VALID,0.0169808,VALID,18.5726,VALID,204,VALID,0.946135,
2000-11-29, 01:18:00,VALID,917.131,VALID,0,VALID,99.0783,VALID,0.0169808,VALID,18.5731,VALID,218,VALID,0.577455,
2000-11-29, 01:19:00,VALID,917.115,VALID,0,VALID,99.0542,VALID,0,VALID,18.5465,VALID,157,VALID,0.0917468,
2000-11-29, 01:20:00,VALID,917.1,VALID,0,VALID,98.969,VALID,0,VALID,18.5016,VALID,133,VALID,0.507813,
2000-11-29, 01:21:00,VALID,917.062,VALID,0,VALID,99.0262,VALID,0,VALID,18.4732,VALID,182,VALID,0.630279,
2000-11-29, 01:22:00,VALID,917.052,VALID,0,VALID,99.1203,VALID,0.0169808,VALID,18.4692,VALID,208,VALID,1.15707,
2000-11-29, 01:23:00,VALID,917.014,VALID,0,VALID,99.1877,VALID,0,VALID,18.502,VALID,216,VALID,1.43956,
2000-11-29, 01:24:00,VALID,917.003,VALID,0,VALID,99.2322,VALID,-0.0169808,VALID,18.5112,VALID,205,VALID,1.05621,
2000-11-29, 01:25:00,VALID,916.968,VALID,0,VALID,99.2793,VALID,0,VALID,18.5373,VALID,191,VALID,1.53926,
2000-11-29, 01:26:00,VALID,916.935,VALID,0,VALID,99.2907,VALID,0,VALID,18.5795,VALID,186,VALID,1.4389,
2000-11-29, 01:27:00,VALID,916.916,VALID,0,VALID,99.2602,VALID,-0.0169808,VALID,18.6119,VALID,190,VALID,1.29688,
2000-11-29, 01:28:00,VALID,916.898,VALID,0,VALID,99.2182,VALID,0,VALID,18.6405,VALID,185,VALID,1.30078,
2000-11-29, 01:29:00,VALID,916.875,VALID,0,VALID,99.1318,VALID,0.0169808,VALID,18.6737,VALID,197,VALID,1.26149,
2000-11-29, 01:30:00,VALID,916.843,VALID,0,VALID,99.03,VALID,0.0339617,VALID,18.6633,VALID,190,VALID,1.08223,
2000-11-29, 01:31:00,VALID,916.811,VALID,0,VALID,98.894,VALID,0,VALID,18.6315,VALID,181,VALID,0.969752,
2000-11-29, 01:32:00,VALID,916.791,VALID,0,VALID,98.9156,VALID,0.0339617,VALID,18.6153,VALID,217,VALID,0.549342,
2000-11-29, 01:33:00,VALID,916.784,VALID,0,VALID,98.9792,VALID,0,VALID,18.6148,VALID,220,VALID,0.850946,
2000-11-29, 01:34:00,VALID,916.789,VALID,0,VALID,98.9804,VALID,0,VALID,18.6472,VALID,216,VALID,0.978906,
2000-11-29, 01:35:00,VALID,916.797,VALID,0,VALID,98.9423,VALID,0,VALID,18.6635,VALID,206,VALID,0.537891,
2000-11-29, 01:36:00,VALID,916.784,VALID,0,VALID,98.8812,VALID,0,VALID,18.6921,VALID,174,VALID,0.817909,
2000-11-29, 01:37:00,VALID,916.79,VALID,0,VALID,98.7274,VALID,0,VALID,18.7598,VALID,176,VALID,0.680921,
2000-11-29, 01:38:00,VALID,916.775,VALID,0,VALID,98.4387,VALID,0,VALID,18.8087,VALID,168,VALID,0.977764,
2000-11-29, 01:39:00,VALID,916.78,VALID,0,VALID,98.159,VALID,0,VALID,18.8281,VALID,181,VALID,0.285657,
2000-11-29, 01:40:00,VALID,916.784,VALID,0,VALID,97.9466,VALID,0.0339617,VALID,18.8348,VALID,243,VALID,0.377534,
2000-11-29, 01:41:00,VALID,916.783,VALID,0,VALID,97.8322,VALID,0,VALID,18.7958,VALID,238,VALID,0.00661058,
2000-11-29, 01:42:00,VALID,916.786,VALID,0,VALID,97.794,VALID,0,VALID,18.757,VALID,238,VALID,0,
2000-11-29, 01:43:00,VALID,916.793,VALID,0,VALID,97.766,VALID,0,VALID,18.718,VALID,234,VALID,0.00564236,
2000-11-29, 01:44:00,VALID,916.782,VALID,0,VALID,97.8334,VALID,0.0339617,VALID,18.6628,VALID,229,VALID,0.318359,
2000-11-29, 01:45:00,VALID,916.775,VALID,0,VALID,97.9288,VALID,0,VALID,18.6372,VALID,221,VALID,0.0774916,
2000-11-29, 01:46:00,VALID,916.766,VALID,0,VALID,97.9962,VALID,0,VALID,18.5952,VALID,249,VALID,0.00741186,
2000-11-29, 01:47:00,VALID,916.753,VALID,0,VALID,97.986,VALID,0,VALID,18.5509,VALID,304,VALID,0.159334,
2000-11-29, 01:48:00,VALID,916.747,VALID,0,VALID,98.0636,VALID,0.0339617,VALID,18.5087,VALID,283,VALID,0.0114329,
2000-11-29, 01:49:00,VALID,916.737,VALID,0,VALID,98.178,VALID,0.0339617,VALID,18.4859,VALID,212,VALID,0.329527,
2000-11-29, 01:50:00,VALID,916.719,VALID,0,VALID,98.2772,VALID,0,VALID,18.46,VALID,176,VALID,0.550465,
2000-11-29, 01:51:00,VALID,916.711,VALID,0,VALID,98.2416,VALID,0.0169808,VALID,18.4183,VALID,130,VALID,0.655664,
2000-11-29, 01:52:00,VALID,916.717,VALID,0,VALID,98.192,VALID,0,VALID,18.34,VALID,105,VALID,0.682893,
2000-11-29, 01:53:00,VALID,916.719,VALID,0,VALID,98.206,VALID,0.0169808,VALID,18.2854,VALID,67,VALID,0.453947,
2000-11-29, 01:54:00,VALID,916.725,VALID,0,VALID,98.4235,VALID,0,VALID,18.2955,VALID,3,VALID,0.88239,
2000-11-29, 01:55:00,VALID,916.743,VALID,0,VALID,98.7426,VALID,0,VALID,18.3827,VALID,31,VALID,0.585136,
2000-11-29, 01:56:00,VALID,916.734,VALID,0,VALID,98.8952,VALID,0,VALID,18.431,VALID,116,VALID,0.413603,
2000-11-29, 01:57:00,VALID,916.723,VALID,0,VALID,98.9957,VALID,0,VALID,18.4605,VALID,167,VALID,0.70613,
2000-11-29, 01:58:00,VALID,916.71,VALID,0,VALID,99.0491,VALID,0.0169808,VALID,18.4859,VALID,167,VALID,0.754934,
2000-11-29, 01:59:00,VALID,916.711,VALID,0,VALID,99.0033,VALID,0.0169808,VALID,18.4861,VALID,168,VALID,0.449219,
2000-11-29, 02:00:00,VALID,916.721,VALID,0,VALID,98.9842,VALID,0,VALID,18.5025,VALID,171,VALID,0.048353,
2000-11-29, 02:01:00,VALID,916.722,VALID,0,VALID,98.9207,VALID,0,VALID,18.463,VALID,6,VALID,0.475977,
2000-11-29, 02:02:00,VALID,916.732,VALID,0,VALID,98.9626,VALID,0.0169808,VALID,18.4921,VALID,18,VALID,0.209498,
2000-11-29, 02:03:00,VALID,916.718,VALID,0,VALID,98.9194,VALID,0,VALID,18.4764,VALID,93,VALID,0.633657,
2000-11-29, 02:04:00,VALID,916.71,VALID,0,VALID,98.8316,VALID,0.0169808,VALID,18.4118,VALID,116,VALID,0.916466,
2000-11-29, 02:05:00,VALID,916.689,VALID,0,VALID,98.8863,VALID,0.0169808,VALID,18.392,VALID,154,VALID,0.970152,
2000-11-29, 02:06:00,VALID,916.657,VALID,0,VALID,99.0122,VALID,-0.0169808,VALID,18.4344,VALID,167,VALID,0.83162,
2000-11-29, 02:07:00,VALID,916.648,VALID,0,VALID,98.9944,VALID,0,VALID,18.4406,VALID,180,VALID,0.60853,
2000-11-29, 02:08:00,VALID,916.621,VALID,0,VALID,98.9817,VALID,0.0169808,VALID,18.4369,VALID,188,VALID,0.021234,
2000-11-29, 02:09:00,VALID,916.618,VALID,0,VALID,98.9664,VALID,0.0169808,VALID,18.4372,VALID,221,VALID,0,
2000-11-29, 02:10:00,VALID,916.583,VALID,0,VALID,98.8342,VALID,-0.0169808,VALID,18.3956,VALID,128,VALID,0,
2000-11-29, 02:11:00,VALID,916.576,VALID,0,VALID,98.5773,VALID,0,VALID,18.2597,VALID,112,VALID,0.130907,
2000-11-29, 02:12:00,VALID,916.559,VALID,0,VALID,98.7032,VALID,0,VALID,18.2244,VALID,139,VALID,0.77908,
2000-11-29, 02:13:00,VALID,916.551,VALID,0,VALID,98.7973,VALID,0,VALID,18.2277,VALID,158,VALID,0.641016,
2000-11-29, 02:14:00,VALID,916.555,VALID,0,VALID,98.7999,VALID,0,VALID,18.2182,VALID,228,VALID,0.0578926,
2000-11-29, 02:15:00,VALID,916.554,VALID,0,VALID,98.8736,VALID,0,VALID,18.1954,VALID,224,VALID,0.0863281,
2000-11-29, 02:16:00,VALID,916.541,VALID,0,VALID,98.9703,VALID,0,VALID,18.2214,VALID,174,VALID,0.0869655,
2000-11-29, 02:17:00,VALID,916.513,VALID,0,VALID,98.9588,VALID,0,VALID,18.2118,VALID,142,VALID,0.399671,
2000-11-29, 02:18:00,VALID,916.519,VALID,0,VALID,98.9321,VALID,0,VALID,18.2058,VALID,143,VALID,0,
2000-11-29, 02:19:00,VALID,916.512,VALID,0,VALID,98.9219,VALID,-0.101885,VALID,18.1711,VALID,146,VALID,0,
2000-11-29, 02:20:00,VALID,916.492,VALID,0,VALID,98.6854,VALID,-0.101885,VALID,18.0648,VALID,114,VALID,0.153212,
2000-11-29, 02:21:00,VALID,916.485,VALID,0,VALID,98.5328,VALID,-0.118866,VALID,17.942,VALID,131,VALID,0.740287,
2000-11-29, 02:22:00,VALID,916.475,VALID,0,VALID,98.7197,VALID,-0.101885,VALID,17.9028,VALID,134,VALID,0.621094,
2000-11-29, 02:23:00,VALID,916.47,VALID,0,VALID,98.8647,VALID,-0.118866,VALID,17.9162,VALID,147,VALID,0.506155,
2000-11-29, 02:24:00,VALID,916.458,VALID,0,VALID,99.1101,VALID,-0.101885,VALID,17.981,VALID,155,VALID,0.577714,
2000-11-29, 02:25:00,VALID,916.45,VALID,0,VALID,99.1267,VALID,-0.101885,VALID,18.0135,VALID,159,VALID,0.60332,
2000-11-29, 02:26:00,VALID,916.435,VALID,0,VALID,99.0656,VALID,-0.101885,VALID,17.9944,VALID,155,VALID,0.593133,
2000-11-29, 02:27:00,VALID,916.423,VALID,0,VALID,99.0949,VALID,-0.101885,VALID,17.9745,VALID,150,VALID,0.787007,
2000-11-29, 02:28:00,VALID,916.403,VALID,0,VALID,98.955,VALID,-0.101885,VALID,17.8871,VALID,149,VALID,0.549279,
2000-11-29, 02:29:00,VALID,916.402,VALID,0,VALID,98.9677,VALID,-0.135847,VALID,17.8587,VALID,148,VALID,0.364583,
2000-11-29, 02:30:00,VALID,916.395,VALID,0,VALID,99.0733,VALID,-0.118866,VALID,17.8585,VALID,148,VALID,0.421669,
2000-11-29, 02:31:00,VALID,916.378,VALID,0,VALID,99.1775,VALID,-0.118866,VALID,17.8873,VALID,154,VALID,0.498561,
2000-11-29, 02:32:00,VALID,916.38,VALID,0,VALID,99.2665,VALID,-0.118866,VALID,17.9328,VALID,163,VALID,0.414258,
2000-11-29, 02:33:00,VALID,916.379,VALID,0,VALID,99.2297,VALID,-0.0849042,VALID,17.9291,VALID,165,VALID,0.0276786,
2000-11-29, 02:34:00,VALID,916.377,VALID,0,VALID,99.0923,VALID,-0.0509425,VALID,17.847,VALID,164,VALID,0,
2000-11-29, 02:35:00,VALID,916.36,VALID,0,VALID,98.9804,VALID,0,VALID,17.7436,VALID,149,VALID,0,
2000-11-29, 02:36:00,VALID,916.357,VALID,0,VALID,98.8787,VALID,-0.0169808,VALID,17.641,VALID,126,VALID,0.288845,
2000-11-29, 02:37:00,VALID,916.344,VALID,0,VALID,98.9957,VALID,-0.0169808,VALID,17.6048,VALID,119,VALID,0.865451,
2000-11-29, 02:38:00,VALID,916.343,VALID,0,VALID,99.1597,VALID,0,VALID,17.6633,VALID,125,VALID,0.898643,
2000-11-29, 02:39:00,VALID,916.346,VALID,0,VALID,99.2208,VALID,0,VALID,17.679,VALID,121,VALID,0.547321,
2000-11-29, 02:40:00,VALID,916.372,VALID,0,VALID,99.1979,VALID,-0.0169808,VALID,17.6694,VALID,44,VALID,0.412861,
2000-11-29, 02:41:00,VALID,916.403,VALID,0,VALID,99.3772,VALID,-0.0169808,VALID,17.8474,VALID,46,VALID,0.277127,
2000-11-29, 02:42:00,VALID,916.412,VALID,0,VALID,99.5031,VALID,-0.0169808,VALID,17.9736,VALID,77,VALID,0.0629223,
2000-11-29, 02:43:00,VALID,916.394,VALID,0,VALID,99.5781,VALID,-0.0169808,VALID,18.0675,VALID,115,VALID,0,
2000-11-29, 02:44:00,VALID,916.397,VALID,0,VALID,99.5679,VALID,-0.0679233,VALID,18.1028,VALID,126,VALID,0,
2000-11-29, 02:45:00,VALID,916.408,VALID,0,VALID,99.5285,VALID,-0.0339617,VALID,18.1028,VALID,126,VALID,0,
2000-11-29, 02:46:00,VALID,916.389,VALID,0,VALID,99.5387,VALID,-0.0339617,VALID,18.1158,VALID,126,VALID,0,
2000-11-29, 02:47:00,VALID,916.369,VALID,0,VALID,99.5768,VALID,-0.0509425,VALID,18.1771,VALID,126,VALID,0,
2000-11-29, 02:48:00,VALID,916.378,VALID,0,VALID,99.4802,VALID,-0.0169808,VALID,18.1255,VALID,126,VALID,0,
2000-11-29, 02:49:00,VALID,916.365,VALID,0,VALID,99.3975,VALID,0,VALID,18.0705,VALID,126,VALID,0,
2000-11-29, 02:50:00,VALID,916.359,VALID,0,VALID,99.2437,VALID,0,VALID,17.9088,VALID,124,VALID,0,
2000-11-29, 02:51:00,VALID,916.355,VALID,0,VALID,99.381,VALID,-0.0169808,VALID,17.9769,VALID,77,VALID,0.283398,
2000-11-29, 02:52:00,VALID,916.341,VALID,0,VALID,99.5463,VALID,-0.0339617,VALID,18.1317,VALID,98,VALID,0.779247,
2000-11-29, 02:53:00,VALID,916.318,VALID,0,VALID,99.4751,VALID,0,VALID,18.0927,VALID,94,VALID,0.898643,
2000-11-29, 02:54:00,VALID,916.31,VALID,0,VALID,99.5107,VALID,0,VALID,18.1317,VALID,97,VALID,1.11205,
2000-11-29, 02:55:00,VALID,916.295,VALID,0,VALID,99.4535,VALID,-0.0169808,VALID,18.1744,VALID,104,VALID,0.973047,
2000-11-29, 02:56:00,VALID,916.297,VALID,0,VALID,99.2932,VALID,0,VALID,18.1543,VALID,105,VALID,0.871094,
2000-11-29, 02:57:00,VALID,916.279,VALID,0,VALID,99.1254,VALID,-0.0169808,VALID,18.1031,VALID,96,VALID,0.801883,
2000-11-29, 02:58:00,VALID,916.257,VALID,0,VALID,99.0707,VALID,-0.0339617,VALID,18.0729,VALID,71,VALID,0.676192,
2000-11-29, 02:59:00,VALID,916.244,VALID,0,VALID,99.1292,VALID,-0.0339617,VALID,18.1644,VALID,69,VALID,0.267228,
2000-11-29, 03:00:00,VALID,916.242,VALID,0,VALID,99.0961,VALID,-0.0169808,VALID,18.2291,VALID,4,VALID,0.063101,
2000-11-29, 03:01:00,VALID,916.227,VALID,0,VALID,99.0631,VALID,-0.0169808,VALID,18.2743,VALID,2,VALID,0.172086,
2000-11-29, 03:02:00,VALID,916.217,VALID,0,VALID,98.894,VALID,-0.0509425,VALID,18.2581,VALID,90,VALID,0.32492,
2000-11-29, 03:03:00,VALID,916.215,VALID,0,VALID,98.5519,VALID,-0.0339617,VALID,18.1866,VALID,91,VALID,0.633898,
2000-11-29, 03:04:00,VALID,916.22,VALID,0,VALID,98.4502,VALID,-0.0509425,VALID,18.1573,VALID,103,VALID,0.42296,
2000-11-29, 03:05:00,VALID,916.193,VALID,0,VALID,98.4349,VALID,0,VALID,18.1739,VALID,137,VALID,0.071875,
2000-11-29, 03:06:00,VALID,916.19,VALID,0,VALID,98.4553,VALID,-0.0339617,VALID,18.206,VALID,39,VALID,0.306377,
2000-11-29, 03:07:00,VALID,916.184,VALID,0,VALID,98.3421,VALID,-0.0679233,VALID,18.2357,VALID,10,VALID,0,
2000-11-29, 03:08:00,VALID,916.179,VALID,0,VALID,98.295,VALID,-0.0339617,VALID,18.2258,VALID,39,VALID,0.265831,
2000-11-29, 03:09:00,VALID,916.182,VALID,0,VALID,98.2658,VALID,-0.0339617,VALID,18.2263,VALID,83,VALID,0.99657,
2000-11-29, 03:10:00,VALID,916.16,VALID,0,VALID,98.426,VALID,-0.0679233,VALID,18.2872,VALID,89,VALID,0.462941,
2000-11-29, 03:11:00,VALID,916.156,VALID,0,VALID,98.3624,VALID,-0.0169808,VALID,18.2934,VALID,88,VALID,1.2992,
2000-11-29, 03:12:00,VALID,916.145,VALID,0,VALID,98.4044,VALID,-0.0339617,VALID,18.3389,VALID,79,VALID,1.36914,
2000-11-29, 03:13:00,VALID,916.127,VALID,0,VALID,98.4069,VALID,-0.0169808,VALID,18.4197,VALID,71,VALID,1.19651,
2000-11-29, 03:14:00,VALID,916.13,VALID,0,VALID,97.9797,VALID,-0.0169808,VALID,18.4967,VALID,40,VALID,0.60773,
2000-11-29, 03:15:00,VALID,916.153,VALID,0,VALID,97.9148,VALID,-0.0169808,VALID,18.565,VALID,327,VALID,0.0715794,
2000-11-29, 03:16:00,VALID,916.142,VALID,0,VALID,97.8856,VALID,-0.0339617,VALID,18.5613,VALID,331,VALID,0,
2000-11-29, 03:17:00,VALID,916.142,VALID,0,VALID,97.8474,VALID,-0.0169808,VALID,18.5198,VALID,300,VALID,0,
2000-11-29, 03:18:00,VALID,916.126,VALID,0,VALID,97.897,VALID,0,VALID,18.4801,VALID,220,VALID,0.0248397,
2000-11-29, 03:19:00,VALID,916.098,VALID,0,VALID,97.8576,VALID,0,VALID,18.4148,VALID,88,VALID,0.685444,
2000-11-29, 03:20:00,VALID,916.072,VALID,0,VALID,97.9606,VALID,0.0169808,VALID,18.3502,VALID,77,VALID,0.916884,
2000-11-29, 03:21:00,VALID,916.08,VALID,0,VALID,98.1742,VALID,0.0509425,VALID,18.3472,VALID,70,VALID,0.146326,
2000-11-29, 03:22:00,VALID,916.063,VALID,0,VALID,98.2976,VALID,0.0679233,VALID,18.3467,VALID,123,VALID,0,
2000-11-29, 03:23:00,VALID,916.076,VALID,0,VALID,98.3662,VALID,0.0509425,VALID,18.3472,VALID,31,VALID,0.262747,
2000-11-29, 03:24:00,VALID,916.099,VALID,0,VALID,98.3955,VALID,0,VALID,18.3274,VALID,49,VALID,0.150338,
2000-11-29, 03:25:00,VALID,916.079,VALID,0,VALID,98.4413,VALID,0.0509425,VALID,18.3119,VALID,102,VALID,1.03746,
2000-11-29, 03:26:00,VALID,916.048,VALID,0,VALID,98.5366,VALID,0.0509425,VALID,18.2985,VALID,108,VALID,1.08774,
2000-11-29, 03:27:00,VALID,916.007,VALID,0,VALID,98.7236,VALID,0.0339617,VALID,18.3373,VALID,105,VALID,1.38035,
2000-11-29, 03:28:00,VALID,915.974,VALID,0,VALID,98.7566,VALID,0.0169808,VALID,18.4019,VALID,96,VALID,0.604307,
2000-11-29, 03:29:00,VALID,915.968,VALID,0,VALID,98.749,VALID,0.0339617,VALID,18.4213,VALID,62,VALID,0.626202,
2000-11-29, 03:30:00,VALID,915.952,VALID,0,VALID,98.7668,VALID,0.0509425,VALID,18.4672,VALID,101,VALID,0.620355,
2000-11-29, 03:31:00,VALID,915.918,VALID,0,VALID,98.7045,VALID,0.0169808,VALID,18.4665,VALID,97,VALID,1.02766,
2000-11-29, 03:32:00,VALID,915.913,VALID,0,VALID,98.618,VALID,-0.0169808,VALID,18.454,VALID,99,VALID,0.735518,
2000-11-29, 03:33:00,VALID,915.898,VALID,0,VALID,98.543,VALID,0.0169808,VALID,18.4314,VALID,101,VALID,0.580512,
2000-11-29, 03:34:00,VALID,915.892,VALID,0,VALID,98.487,VALID,0.0169808,VALID,18.3956,VALID,101,VALID,0.0761719,
2000-11-29, 03:35:00,VALID,915.894,VALID,0.2,VALID,98.4731,VALID,0.0169808,VALID,18.373,VALID,101,VALID,0,
2000-11-29, 03:36:00,VALID,915.885,VALID,0,VALID,98.5354,VALID,0.0169808,VALID,18.376,VALID,151,VALID,0,